| time (UTC) | temp F | wind direction | speed MPH | gust MPH | rain 1hr in | rain 24hr in | rain mn in | humidity % | barometer mb |
| 20260508081038 | 52 | 297 | 2.0 | 7.0 | 0.00 | 0.00 | 0.00 | 89 | 1017.5 |
| 20260508080537 | 52 | 262 | 2.0 | 8.0 | 0.00 | 0.00 | 0.00 | 89 | 1017.5 |
| 20260508080047 | 52 | 277 | 2.0 | 8.0 | 0.00 | 0.00 | 0.00 | 89 | 1017.6 |
| 20260508075540 | 52 | 270 | 2.0 | 8.0 | 0.00 | 0.00 | 0.00 | 89 | 1017.7 |
| 20260508075037 | 52 | 273 | 3.0 | 8.0 | 0.00 | 0.00 | 0.00 | 89 | 1017.6 |
| 20260508074547 | 52 | 298 | 3.0 | 9.0 | 0.00 | 0.00 | 0.00 | 90 | 1017.6 |
| 20260508074038 | 52 | 275 | 2.0 | 11.0 | 0.00 | 0.00 | 0.00 | 90 | 1017.6 |
| 20260508073537 | 52 | 286 | 4.0 | 11.0 | 0.00 | 0.00 | 0.00 | 89 | 1017.5 |
| 20260508073048 | 52 | 298 | 3.0 | 7.0 | 0.00 | 0.00 | 0.00 | 90 | 1017.5 |
| 20260508072537 | 52 | 277 | 2.0 | 7.0 | 0.00 | 0.00 | 0.00 | 90 | 1017.4 |
| 20260508072037 | 52 | 238 | 2.0 | 7.0 | 0.00 | 0.00 | 0.00 | 90 | 1017.4 |
| 20260508071545 | 52 | 254 | 3.0 | 7.0 | 0.00 | 0.00 | 0.00 | 90 | 1017.4 |
| 20260508071038 | 52 | 240 | 3.0 | 11.0 | 0.00 | 0.00 | 0.00 | 90 | 1017.5 |
| 20260508070538 | 52 | 267 | 4.0 | 11.0 | 0.00 | 0.00 | 0.00 | 90 | 1017.4 |
| 20260508070049 | 52 | 294 | 3.0 | 10.0 | 0.00 | 0.00 | 0.00 | 90 | 1017.6 |
| 20260508065537 | 52 | 294 | 3.0 | 10.0 | 0.00 | 0.00 | 0.00 | 90 | 1017.5 |
| 20260508065036 | 52 | 236 | 4.0 | 9.0 | 0.00 | 0.00 | 0.00 | 90 | 1017.5 |
| 20260508064548 | 52 | 296 | 2.0 | 10.0 | 0.00 | 0.00 | 0.00 | 90 | 1017.6 |
| 20260508064037 | 52 | 259 | 4.0 | 10.0 | 0.00 | 0.00 | 0.00 | 90 | 1017.6 |
| 20260508063538 | 52 | 285 | 4.0 | 9.0 | 0.00 | 0.00 | 0.00 | 90 | 1017.6 |
| 20260508063041 | 52 | 308 | 3.0 | 10.0 | 0.00 | 0.00 | 0.00 | 91 | 1017.6 |
| 20260508062537 | 52 | 281 | 2.0 | 10.0 | 0.00 | 0.00 | 0.00 | 91 | 1017.6 |
| 20260508062037 | 52 | 272 | 3.0 | 9.0 | 0.00 | 0.00 | 0.00 | 91 | 1017.7 |
| 20260508061544 | 52 | 296 | 4.0 | 8.0 | 0.00 | 0.00 | 0.00 | 91 | 1017.6 |
| 20260508061042 | 52 | 253 | 3.0 | 8.0 | 0.00 | 0.00 | 0.00 | 91 | 1017.6 |
| 20260508060538 | 52 | 295 | 4.0 | 8.0 | 0.00 | 0.00 | 0.00 | 91 | 1017.6 |
| 20260508060052 | 52 | 288 | 4.0 | 10.0 | 0.00 | 0.00 | 0.00 | 91 | 1017.6 |
| 20260508055537 | 52 | 300 | 3.0 | 10.0 | 0.00 | 0.00 | 0.00 | 91 | 1017.7 |
| 20260508055037 | 52 | 297 | 4.0 | 10.0 | 0.00 | 0.00 | 0.00 | 91 | 1017.6 |
| 20260508054549 | 52 | 312 | 2.0 | 7.0 | 0.00 | 0.00 | 0.00 | 91 | 1017.6 |
| 20260508054037 | 52 | 262 | 2.0 | 8.0 | 0.00 | 0.00 | 0.00 | 91 | 1017.4 |
| 20260508053537 | 52 | 298 | 3.0 | 8.0 | 0.00 | 0.00 | 0.00 | 91 | 1017.5 |
| 20260508053056 | 52 | 282 | 2.0 | 9.0 | 0.00 | 0.00 | 0.00 | 91 | 1017.5 |
| 20260508052537 | 52 | 273 | 2.0 | 9.0 | 0.00 | 0.00 | 0.00 | 91 | 1017.5 |
| 20260508052037 | 52 | 264 | 3.0 | 9.0 | 0.00 | 0.00 | 0.00 | 91 | 1017.5 |
| 20260508051550 | 52 | 271 | 3.0 | 10.0 | 0.00 | 0.00 | 0.00 | 91 | 1017.6 |
| 20260508051038 | 52 | 229 | 2.0 | 10.0 | 0.00 | 0.00 | 0.00 | 92 | 1017.5 |
| 20260508050537 | 52 | 292 | 2.0 | 10.0 | 0.00 | 0.00 | 0.00 | 92 | 1017.5 |
| 20260508050043 | 52 | 240 | 2.0 | 9.0 | 0.00 | 0.00 | 0.00 | 92 | 1017.5 |
| 20260508045537 | 52 | 261 | 3.0 | 9.0 | 0.00 | 0.00 | 0.00 | 92 | 1017.4 |
| 20260508045037 | 52 | 272 | 3.0 | 8.0 | 0.00 | 0.00 | 0.00 | 92 | 1017.4 |
| 20260508044542 | 52 | 286 | 2.0 | 5.0 | 0.00 | 0.00 | 0.00 | 92 | 1017.3 |
| 20260508044037 | 52 | 237 | 2.0 | 6.0 | 0.00 | 0.00 | 0.00 | 92 | 1017.3 |
| 20260508043537 | 52 | 265 | 2.0 | 7.0 | 0.00 | 0.00 | 0.00 | 92 | 1017.3 |
| 20260508043049 | 52 | 293 | 2.0 | 7.0 | 0.00 | 0.00 | 0.00 | 92 | 1017.3 |
| 20260508042537 | 52 | 296 | 2.0 | 6.0 | 0.00 | 0.00 | 0.00 | 92 | 1017.2 |
| 20260508042037 | 52 | 295 | 2.0 | 6.0 | 0.00 | 0.00 | 0.00 | 92 | 1017.1 |
| 20260508041547 | 52 | 277 | 2.0 | 6.0 | 0.00 | 0.00 | 0.00 | 92 | 1017.1 |
| 20260508041037 | 52 | 254 | 2.0 | 6.0 | 0.00 | 0.00 | 0.00 | 92 | 1017.2 |
| 20260508040537 | 52 | 248 | 2.0 | 6.0 | 0.00 | 0.00 | 0.00 | 92 | 1017.1 |
| 20260508040046 | 52 | 242 | 2.0 | 8.0 | 0.00 | 0.00 | 0.00 | 92 | 1017.1 |
| 20260508035536 | 52 | 325 | 2.0 | 9.0 | 0.00 | 0.00 | 0.00 | 92 | 1017.1 |
| 20260508035038 | 52 | 316 | 2.0 | 10.0 | 0.00 | 0.00 | 0.00 | 92 | 1017.0 |
| 20260508034549 | 52 | 304 | 3.0 | 10.0 | 0.00 | 0.00 | 0.00 | 91 | 1016.9 |
| 20260508034037 | 53 | 274 | 3.0 | 7.0 | 0.00 | 0.00 | 0.00 | 92 | 1016.7 |
| 20260508033537 | 52 | 280 | 2.0 | 7.0 | 0.00 | 0.00 | 0.00 | 91 | 1016.8 |
| 20260508033044 | 52 | 315 | 2.0 | 7.0 | 0.00 | 0.00 | 0.00 | 91 | 1016.8 |
| 20260508032538 | 52 | 244 | 2.0 | 6.0 | 0.00 | 0.00 | 0.00 | 91 | 1016.7 |
| 20260508032037 | 52 | 240 | 2.0 | 7.0 | 0.00 | 0.00 | 0.00 | 91 | 1016.6 |
| 20260508031542 | 52 | 248 | 3.0 | 7.0 | 0.00 | 0.00 | 0.00 | 91 | 1016.5 |
| 20260508031037 | 52 | 299 | 3.0 | 7.0 | 0.00 | 0.00 | 0.00 | 91 | 1016.5 |
| 20260508030537 | 52 | 294 | 3.0 | 7.0 | 0.00 | 0.00 | 0.00 | 91 | 1016.5 |
| 20260508030049 | 53 | 274 | 2.0 | 10.0 | 0.00 | 0.00 | 0.00 | 91 | 1016.4 |
| 20260508025536 | 53 | 238 | 3.0 | 10.0 | 0.00 | 0.00 | 0.00 | 91 | 1016.2 |
| 20260508025037 | 53 | 281 | 2.0 | 7.0 | 0.00 | 0.00 | 0.00 | 91 | 1016.2 |
| 20260508024554 | 53 | 218 | 3.0 | 7.0 | 0.00 | 0.00 | 0.00 | 91 | 1016.2 |
| 20260508024037 | 53 | 273 | 2.0 | 6.0 | 0.00 | 0.00 | 0.00 | 91 | 1016.2 |
| 20260508023537 | 53 | 246 | 2.0 | 7.0 | 0.00 | 0.00 | 0.00 | 91 | 1016.2 |
| 20260508023045 | 53 | 238 | 3.0 | 7.0 | 0.00 | 0.00 | 0.00 | 90 | 1016.2 |
| 20260508022536 | 53 | 270 | 2.0 | 8.0 | 0.00 | 0.00 | 0.00 | 90 | 1016.2 |
| 20260508022037 | 53 | 275 | 1.0 | 10.0 | 0.00 | 0.00 | 0.00 | 90 | 1016.2 |
| 20260508021545 | 53 | 343 | 3.0 | 10.0 | 0.00 | 0.00 | 0.00 | 90 | 1016.2 |
| 20260508021036 | 53 | 289 | 3.0 | 7.0 | 0.00 | 0.00 | 0.00 | 90 | 1016.3 |
| 20260508020536 | 54 | 271 | 3.0 | 6.0 | 0.00 | 0.00 | 0.00 | 90 | 1016.3 |
| 20260508020043 | 54 | 282 | 1.0 | 8.0 | 0.00 | 0.00 | 0.00 | 90 | 1016.3 |
| 20260508015540 | 54 | 235 | 2.0 | 8.0 | 0.00 | 0.00 | 0.00 | 90 | 1016.3 |
| 20260508015037 | 54 | 246 | 3.0 | 8.0 | 0.00 | 0.00 | 0.00 | 90 | 1016.2 |
| 20260508014542 | 54 | 281 | 2.0 | 6.0 | 0.00 | 0.00 | 0.00 | 90 | 1016.2 |
| 20260508014041 | 54 | 284 | 3.0 | 8.0 | 0.00 | 0.00 | 0.00 | 90 | 1016.3 |
| 20260508013537 | 54 | 292 | 3.0 | 8.0 | 0.00 | 0.00 | 0.00 | 89 | 1016.3 |
| 20260508013042 | 54 | 250 | 3.0 | 7.0 | 0.00 | 0.00 | 0.00 | 90 | 1016.4 |
| 20260508012540 | 54 | 255 | 2.0 | 7.0 | 0.00 | 0.00 | 0.00 | 90 | 1016.4 |
| 20260508012037 | 54 | 273 | 3.0 | 8.0 | 0.00 | 0.00 | 0.00 | 89 | 1016.4 |
| 20260508011557 | 54 | 258 | 3.0 | 8.0 | 0.00 | 0.00 | 0.00 | 89 | 1016.4 |
| 20260508011037 | 54 | 253 | 3.0 | 8.0 | 0.00 | 0.00 | 0.00 | 89 | 1016.5 |
| 20260508010537 | 54 | 286 | 2.0 | 9.0 | 0.00 | 0.00 | 0.00 | 89 | 1016.5 |
| 20260508010045 | 54 | 315 | 4.0 | 9.0 | 0.00 | 0.00 | 0.00 | 89 | 1016.5 |
| 20260508005536 | 54 | 288 | 3.0 | 7.0 | 0.00 | 0.00 | 0.00 | 89 | 1016.5 |
| 20260508005041 | 54 | 280 | 2.0 | 6.0 | 0.00 | 0.00 | 0.00 | 89 | 1016.6 |
| 20260508004550 | 54 | 272 | 3.0 | 8.0 | 0.00 | 0.00 | 0.00 | 89 | 1016.7 |
| 20260508004036 | 54 | 292 | 3.0 | 10.0 | 0.00 | 0.00 | 0.00 | 89 | 1016.7 |
| 20260508003536 | 54 | 250 | 3.0 | 10.0 | 0.00 | 0.00 | 0.00 | 89 | 1016.7 |
| 20260508003045 | 54 | 307 | 2.0 | 8.0 | 0.00 | 0.00 | 0.00 | 89 | 1016.8 |
| 20260508002537 | 54 | 294 | 2.0 | 9.0 | 0.00 | 0.00 | 0.00 | 89 | 1016.8 |
| 20260508002037 | 54 | 309 | 2.0 | 9.0 | 0.00 | 0.00 | 0.00 | 88 | 1016.8 |
| 20260508001544 | 54 | 281 | 3.0 | 9.0 | 0.00 | 0.00 | 0.00 | 88 | 1016.8 |
| 20260508001037 | 54 | 261 | 2.0 | 10.0 | 0.00 | 0.00 | 0.00 | 88 | 1016.8 |
| 20260508000538 | 54 | 123 | 3.0 | 10.0 | 0.00 | 0.00 | 0.00 | 88 | 1016.8 |
| 20260508000049 | 55 | 292 | 2.0 | 10.0 | 0.00 | 0.00 | 0.00 | 88 | 1016.8 |
| 20260507235537 | 54 | 221 | 4.0 | 10.0 | 0.00 | 0.00 | 0.00 | 88 | 1016.9 |
| 20260507235037 | 54 | 221 | 3.0 | 8.0 | 0.00 | 0.00 | 0.00 | 88 | 1016.8 |
| 20260507234552 | 54 | 263 | 3.0 | 8.0 | 0.00 | 0.00 | 0.00 | 88 | 1016.9 |
| 20260507234038 | 54 | 282 | 3.0 | 8.0 | 0.00 | 0.00 | 0.00 | 88 | 1017.0 |
| 20260507233537 | 54 | 257 | 2.0 | 8.0 | 0.00 | 0.00 | 0.00 | 88 | 1017.1 |
| 20260507233045 | 54 | 246 | 2.0 | 9.0 | 0.00 | 0.00 | 0.00 | 88 | 1017.0 |
| 20260507232537 | 54 | 261 | 3.0 | 10.0 | 0.00 | 0.00 | 0.00 | 88 | 1017.2 |
| 20260507232037 | 54 | 280 | 3.0 | 10.0 | 0.00 | 0.00 | 0.00 | 88 | 1017.2 |
| 20260507231549 | 54 | 298 | 3.0 | 10.0 | 0.00 | 0.00 | 0.00 | 88 | 1017.2 |
| 20260507231036 | 54 | 236 | 3.0 | 11.0 | 0.00 | 0.00 | 0.00 | 88 | 1017.3 |
| 20260507230537 | 54 | 232 | 3.0 | 11.0 | 0.00 | 0.00 | 0.00 | 87 | 1017.3 |
| 20260507230044 | 55 | 304 | 4.0 | 9.0 | 0.00 | 0.00 | 0.00 | 87 | 1017.3 |
| 20260507225536 | 55 | 198 | 3.0 | 7.0 | 0.00 | 0.00 | 0.00 | 87 | 1017.3 |
| 20260507225037 | 55 | 284 | 2.0 | 9.0 | 0.00 | 0.00 | 0.00 | 87 | 1017.4 |
| 20260507224544 | 55 | 254 | 3.0 | 9.0 | 0.00 | 0.00 | 0.00 | 87 | 1017.3 |
| 20260507224039 | 55 | 281 | 4.0 | 9.0 | 0.00 | 0.00 | 0.00 | 87 | 1017.3 |
| 20260507223540 | 55 | 281 | 3.0 | 8.0 | 0.00 | 0.00 | 0.00 | 86 | 1017.3 |
| 20260507223055 | 56 | 248 | 2.0 | 9.0 | 0.00 | 0.00 | 0.00 | 86 | 1017.3 |
| 20260507222538 | 55 | 333 | 3.0 | 9.0 | 0.00 | 0.00 | 0.00 | 86 | 1017.2 |
| 20260507222041 | 56 | 246 | 3.0 | 9.0 | 0.00 | 0.00 | 0.00 | 87 | 1017.3 |
| 20260507221547 | 55 | 285 | 3.0 | 7.0 | 0.00 | 0.00 | 0.00 | 86 | 1017.4 |
| 20260507221038 | 56 | 275 | 2.0 | 7.0 | 0.00 | 0.00 | 0.00 | 86 | 1017.4 |
| 20260507220538 | 56 | 265 | 3.0 | 8.0 | 0.00 | 0.00 | 0.00 | 87 | 1017.4 |
| 20260507220055 | 56 | 292 | 3.0 | 8.0 | 0.00 | 0.00 | 0.00 | 87 | 1017.5 |
| 20260507215539 | 56 | 255 | 3.0 | 7.0 | 0.00 | 0.00 | 0.00 | 87 | 1017.5 |
| 20260507215038 | 55 | 271 | 2.0 | 6.0 | 0.00 | 0.00 | 0.00 | 87 | 1017.5 |
| 20260507214549 | 56 | 250 | 2.0 | 6.0 | 0.00 | 0.00 | 0.00 | 87 | 1017.5 |
| 20260507214038 | 55 | 263 | 2.0 | 7.0 | 0.00 | 0.00 | 0.00 | 88 | 1017.6 |
| 20260507213539 | 55 | 253 | 2.0 | 7.0 | 0.00 | 0.00 | 0.00 | 87 | 1017.6 |
| 20260507213051 | 55 | 275 | 2.0 | 7.0 | 0.00 | 0.00 | 0.00 | 88 | 1017.7 |
| 20260507212538 | 55 | 302 | 3.0 | 7.0 | 0.00 | 0.00 | 0.00 | 87 | 1017.7 |
| 20260507212038 | 56 | 304 | 2.0 | 7.0 | 0.00 | 0.00 | 0.00 | 88 | 1017.7 |
| 20260507211552 | 55 | 274 | 2.0 | 7.0 | 0.00 | 0.00 | 0.00 | 88 | 1017.8 |
| 20260507211039 | 55 | 277 | 3.0 | 7.0 | 0.00 | 0.00 | 0.00 | 88 | 1017.9 |
| 20260507210540 | 55 | 281 | 2.0 | 7.0 | 0.00 | 0.00 | 0.00 | 89 | 1017.9 |
| 20260507210050 | 55 | 281 | 2.0 | 7.0 | 0.00 | 0.00 | 0.00 | 89 | 1017.9 |
| 20260507205538 | 55 | 273 | 2.0 | 6.0 | 0.00 | 0.00 | 0.00 | 89 | 1017.9 |
| 20260507205040 | 55 | 250 | 2.0 | 5.0 | 0.00 | 0.00 | 0.00 | 89 | 1018.0 |
| 20260507204551 | 55 | 306 | 2.0 | 4.0 | 0.00 | 0.00 | 0.00 | 89 | 1018.0 |
| 20260507204040 | 55 | 273 | 2.0 | 5.0 | 0.00 | 0.00 | 0.00 | 89 | 1018.1 |
| 20260507203539 | 55 | 294 | 2.0 | 6.0 | 0.00 | 0.00 | 0.00 | 89 | 1018.1 |
| 20260507203045 | 55 | 292 | 2.0 | 6.0 | 0.00 | 0.00 | 0.00 | 89 | 1018.1 |
| 20260507202538 | 55 | 254 | 3.0 | 6.0 | 0.00 | 0.00 | 0.00 | 89 | 1018.1 |
| 20260507202038 | 55 | 229 | 2.0 | 5.0 | 0.00 | 0.00 | 0.00 | 89 | 1018.1 |
| 20260507201547 | 55 | 260 | 2.0 | 7.0 | 0.00 | 0.00 | 0.00 | 89 | 1018.2 |
| 20260507201039 | 55 | 279 | 2.0 | 7.0 | 0.00 | 0.00 | 0.00 | 90 | 1018.1 |
| 20260507200544 | 55 | 255 | 3.0 | 7.0 | 0.00 | 0.00 | 0.00 | 89 | 1018.1 |
| 20260507200056 | 55 | 284 | 2.0 | 7.0 | 0.00 | 0.00 | 0.00 | 89 | 1018.2 |
| 20260507195539 | 55 | 277 | 2.0 | 6.0 | 0.00 | 0.00 | 0.00 | 89 | 1018.2 |
| 20260507195040 | 54 | 311 | 2.0 | 6.0 | 0.00 | 0.00 | 0.00 | 89 | 1018.2 |
| 20260507194547 | 55 | 283 | 2.0 | 6.0 | 0.00 | 0.00 | 0.00 | 90 | 1018.4 |
| 20260507194041 | 54 | 263 | 2.0 | 6.0 | 0.00 | 0.00 | 0.00 | 90 | 1018.4 |
| 20260507193539 | 54 | 246 | 2.0 | 5.0 | 0.00 | 0.00 | 0.00 | 90 | 1018.4 |
| 20260507193053 | 54 | 237 | 2.0 | 5.0 | 0.00 | 0.00 | 0.00 | 90 | 1018.4 |
| 20260507192541 | 54 | 238 | 1.0 | 6.0 | 0.00 | 0.00 | 0.00 | 90 | 1018.4 |
| 20260507192040 | 54 | 286 | 2.0 | 6.0 | 0.00 | 0.00 | 0.00 | 89 | 1018.4 |
| 20260507191546 | 54 | 281 | 2.0 | 6.0 | 0.00 | 0.00 | 0.00 | 89 | 1018.5 |
| 20260507191038 | 54 | 280 | 2.0 | 4.0 | 0.00 | 0.00 | 0.00 | 89 | 1018.5 |
| 20260507190539 | 54 | 273 | 2.0 | 7.0 | 0.00 | 0.00 | 0.00 | 89 | 1018.5 |
| 20260507190051 | 54 | 293 | 2.0 | 7.0 | 0.00 | 0.00 | 0.00 | 90 | 1018.5 |
| 20260507185538 | 54 | 315 | 2.0 | 7.0 | 0.00 | 0.00 | 0.00 | 90 | 1018.5 |
| 20260507185038 | 54 | 271 | 2.0 | 6.0 | 0.00 | 0.00 | 0.00 | 89 | 1018.5 |
| 20260507184544 | 54 | 279 | 2.0 | 6.0 | 0.00 | 0.00 | 0.00 | 90 | 1018.6 |
| 20260507184039 | 54 | 323 | 2.0 | 6.0 | 0.00 | 0.00 | 0.00 | 89 | 1018.6 |
| 20260507183538 | 54 | 284 | 2.0 | 7.0 | 0.00 | 0.00 | 0.00 | 90 | 1018.6 |
| 20260507183049 | 53 | 291 | 2.0 | 7.0 | 0.00 | 0.00 | 0.00 | 90 | 1018.6 |
| 20260507182538 | 53 | 286 | 2.0 | 6.0 | 0.00 | 0.00 | 0.00 | 90 | 1018.7 |
| 20260507182037 | 54 | 294 | 2.0 | 6.0 | 0.00 | 0.00 | 0.00 | 89 | 1018.7 |
| 20260507181550 | 54 | 243 | 2.0 | 5.0 | 0.00 | 0.00 | 0.00 | 89 | 1018.7 |
| 20260507181039 | 54 | 275 | 2.0 | 6.0 | 0.00 | 0.00 | 0.00 | 89 | 1018.8 |
| 20260507180537 | 54 | 290 | 2.0 | 6.0 | 0.00 | 0.00 | 0.00 | 89 | 1018.8 |
| 20260507180050 | 54 | 300 | 2.0 | 6.0 | 0.00 | 0.00 | 0.00 | 89 | 1018.7 |
| 20260507175538 | 54 | 303 | 2.0 | 6.0 | 0.00 | 0.00 | 0.00 | 89 | 1018.7 |
| 20260507175039 | 54 | 273 | 2.0 | 6.0 | 0.00 | 0.00 | 0.00 | 89 | 1018.7 |
| 20260507174557 | 53 | 240 | 2.0 | 6.0 | 0.00 | 0.00 | 0.00 | 89 | 1018.6 |
| 20260507174038 | 53 | 296 | 2.0 | 4.0 | 0.00 | 0.00 | 0.00 | 89 | 1018.7 |
| 20260507173538 | 54 | 311 | 1.0 | 6.0 | 0.00 | 0.00 | 0.00 | 89 | 1018.6 |
| 20260507173046 | 53 | 299 | 2.0 | 6.0 | 0.00 | 0.00 | 0.00 | 89 | 1018.7 |
| 20260507172540 | 53 | 279 | 2.0 | 4.0 | 0.00 | 0.00 | 0.00 | 89 | 1018.6 |
| 20260507172040 | 53 | 282 | 1.0 | 6.0 | 0.00 | 0.00 | 0.00 | 89 | 1018.7 |
| 20260507171555 | 53 | 265 | 2.0 | 6.0 | 0.00 | 0.00 | 0.00 | 89 | 1018.7 |
| 20260507171038 | 53 | 281 | 1.0 | 4.0 | 0.00 | 0.00 | 0.00 | 89 | 1018.7 |
| 20260507170539 | 53 | 268 | 1.0 | 4.0 | 0.00 | 0.00 | 0.00 | 89 | 1018.6 |
| 20260507170053 | 53 | 305 | 1.0 | 4.0 | 0.00 | 0.00 | 0.00 | 89 | 1018.6 |
| 20260507165538 | 53 | 295 | 2.0 | 4.0 | 0.00 | 0.00 | 0.00 | 89 | 1018.6 |
| 20260507165038 | 53 | 324 | 1.0 | 4.0 | 0.00 | 0.00 | 0.00 | 89 | 1018.4 |
| 20260507164551 | 53 | 313 | 1.0 | 4.0 | 0.00 | 0.00 | 0.00 | 89 | 1018.4 |
| 20260507164038 | 53 | 327 | 2.0 | 4.0 | 0.00 | 0.00 | 0.00 | 89 | 1018.4 |
| 20260507163535 | 53 | 276 | 2.0 | 4.0 | 0.00 | 0.00 | 0.00 | 88 | 1018.4 |
| 20260507163047 | 53 | 298 | 1.0 | 5.0 | 0.00 | 0.00 | 0.00 | 89 | 1018.4 |
| 20260507162536 | 53 | 332 | 2.0 | 6.0 | 0.00 | 0.00 | 0.00 | 89 | 1018.4 |
| 20260507162037 | 53 | 325 | 3.0 | 6.0 | 0.00 | 0.00 | 0.00 | 89 | 1018.4 |
| 20260507161545 | 53 | 287 | 1.0 | 4.0 | 0.00 | 0.00 | 0.00 | 89 | 1018.4 |
| 20260507161036 | 53 | 316 | 1.0 | 4.0 | 0.00 | 0.00 | 0.00 | 89 | 1018.4 |
| 20260507160537 | 53 | 262 | 1.0 | 6.0 | 0.00 | 0.00 | 0.00 | 89 | 1018.3 |
| 20260507160047 | 53 | 248 | 1.0 | 7.0 | 0.00 | 0.00 | 0.00 | 89 | 1018.3 |
| 20260507155536 | 53 | 277 | 2.0 | 7.0 | 0.00 | 0.00 | 0.00 | 90 | 1018.3 |
| 20260507155036 | 53 | 284 | 0.0 | 3.0 | 0.00 | 0.00 | 0.00 | 90 | 1018.3 |
| 20260507154544 | 52 | 281 | 0.0 | 6.0 | 0.00 | 0.00 | 0.00 | 90 | 1018.3 |
| 20260507154037 | 52 | 284 | 2.0 | 6.0 | 0.00 | 0.00 | 0.00 | 89 | 1018.3 |
| 20260507153536 | 53 | 311 | 1.0 | 4.0 | 0.00 | 0.00 | 0.00 | 90 | 1018.4 |
| 20260507153041 | 53 | 0 | 0.0 | 4.0 | 0.00 | 0.00 | 0.00 | 90 | 1018.3 |
| 20260507152536 | 52 | 5 | 1.0 | 4.0 | 0.00 | 0.00 | 0.00 | 90 | 1018.4 |
| 20260507152038 | 52 | 223 | 1.0 | 6.0 | 0.00 | 0.00 | 0.00 | 90 | 1018.4 |
| 20260507151549 | 52 | 302 | 1.0 | 6.0 | 0.00 | 0.00 | 0.00 | 90 | 1018.4 |
| 20260507151036 | 52 | 287 | 0.0 | 3.0 | 0.00 | 0.00 | 0.00 | 91 | 1018.4 |
| 20260507150536 | 52 | 285 | 0.0 | 3.0 | 0.00 | 0.00 | 0.00 | 90 | 1018.3 |
| 20260507150047 | 52 | 267 | 1.0 | 4.0 | 0.00 | 0.00 | 0.00 | 91 | 1018.3 |
| 20260507145536 | 52 | 259 | 1.0 | 4.0 | 0.00 | 0.00 | 0.00 | 91 | 1018.3 |
| 20260507145032 | 52 | 0 | 1.0 | 3.0 | 0.00 | 0.00 | 0.00 | 91 | 1018.3 |
| 20260507144610 | 52 | 286 | 1.0 | 3.0 | 0.00 | 0.00 | 0.00 | 91 | 1018.2 |
| 20260507144037 | 52 | 279 | 0.0 | 4.0 | 0.00 | 0.00 | 0.00 | 91 | 1018.2 |
| 20260507143536 | 52 | 279 | 1.0 | 4.0 | 0.00 | 0.00 | 0.00 | 91 | 1018.2 |
| 20260507143045 | 52 | 337 | 0.0 | 6.0 | 0.00 | 0.00 | 0.00 | 91 | 1018.2 |
| 20260507142537 | 52 | 327 | 1.0 | 6.0 | 0.00 | 0.00 | 0.00 | 91 | 1018.1 |
| 20260507142036 | 52 | 247 | 2.0 | 6.0 | 0.00 | 0.00 | 0.00 | 91 | 1018.2 |
| 20260507141548 | 52 | 289 | 1.0 | 3.0 | 0.00 | 0.00 | 0.00 | 92 | 1018.1 |
| 20260507141036 | 52 | 275 | 1.0 | 3.0 | 0.00 | 0.00 | 0.00 | 91 | 1018.1 |
| 20260507140536 | 52 | 275 | 1.0 | 3.0 | 0.00 | 0.00 | 0.00 | 91 | 1018.1 |
| 20260507140051 | 52 | 314 | 1.0 | 3.0 | 0.00 | 0.00 | 0.00 | 91 | 1018.1 |
| 20260507135536 | 52 | 295 | 1.0 | 4.0 | 0.00 | 0.00 | 0.00 | 91 | 1018.0 |
| 20260507135038 | 52 | 211 | 0.0 | 4.0 | 0.00 | 0.00 | 0.00 | 91 | 1017.9 |
| 20260507134550 | 52 | 286 | 1.0 | 4.0 | 0.00 | 0.00 | 0.00 | 91 | 1017.9 |
| 20260507134036 | 52 | 259 | 1.0 | 4.0 | 0.00 | 0.00 | 0.00 | 91 | 1017.9 |
| 20260507133536 | 52 | 268 | 1.0 | 4.0 | 0.00 | 0.00 | 0.00 | 91 | 1017.9 |
| 20260507133048 | 52 | 229 | 1.0 | 4.0 | 0.00 | 0.00 | 0.00 | 91 | 1017.9 |
| 20260507132536 | 52 | 258 | 2.0 | 4.0 | 0.00 | 0.00 | 0.00 | 92 | 1017.8 |
| 20260507132035 | 52 | 291 | 1.0 | 4.0 | 0.00 | 0.00 | 0.00 | 91 | 1017.8 |
| 20260507131545 | 52 | 285 | 1.0 | 4.0 | 0.00 | 0.00 | 0.00 | 91 | 1017.7 |
| 20260507131035 | 52 | 282 | 1.0 | 4.0 | 0.00 | 0.00 | 0.00 | 92 | 1017.6 |
| 20260507130536 | 52 | 278 | 2.0 | 6.0 | 0.00 | 0.00 | 0.00 | 92 | 1017.7 |
| 20260507130104 | 52 | 239 | 1.0 | 6.0 | 0.00 | 0.00 | 0.00 | 91 | 1017.6 |
| 20260507125536 | 52 | 242 | 1.0 | 7.0 | 0.00 | 0.00 | 0.00 | 91 | 1017.7 |
| 20260507125036 | 52 | 286 | 2.0 | 7.0 | 0.00 | 0.00 | 0.00 | 91 | 1017.6 |
| 20260507124543 | 52 | 275 | 1.0 | 6.0 | 0.00 | 0.00 | 0.00 | 91 | 1017.6 |
| 20260507124036 | 52 | 254 | 1.0 | 6.0 | 0.00 | 0.00 | 0.00 | 91 | 1017.6 |
| 20260507123536 | 52 | 290 | 2.0 | 6.0 | 0.00 | 0.00 | 0.00 | 91 | 1017.6 |
| 20260507123053 | 52 | 273 | 1.0 | 8.0 | 0.00 | 0.00 | 0.00 | 91 | 1017.5 |
| 20260507122536 | 52 | 287 | 1.0 | 8.0 | 0.00 | 0.00 | 0.00 | 91 | 1017.6 |
| 20260507122036 | 52 | 288 | 2.0 | 6.0 | 0.00 | 0.00 | 0.00 | 91 | 1017.6 |
| 20260507121548 | 52 | 332 | 2.0 | 4.0 | 0.00 | 0.00 | 0.00 | 91 | 1017.6 |
| 20260507121036 | 52 | 276 | 1.0 | 4.0 | 0.00 | 0.00 | 0.00 | 91 | 1017.6 |
| 20260507120536 | 52 | 250 | 1.0 | 4.0 | 0.00 | 0.00 | 0.00 | 91 | 1017.5 |
| 20260507120048 | 52 | 294 | 1.0 | 3.0 | 0.00 | 0.00 | 0.00 | 91 | 1017.5 |
| 20260507115536 | 52 | 291 | 1.0 | 4.0 | 0.00 | 0.00 | 0.00 | 91 | 1017.7 |
| 20260507115035 | 52 | 285 | 1.0 | 4.0 | 0.00 | 0.00 | 0.00 | 91 | 1017.6 |
| 20260507114547 | 52 | 288 | 1.0 | 4.0 | 0.00 | 0.00 | 0.00 | 91 | 1017.7 |
| 20260507114036 | 52 | 306 | 2.0 | 4.0 | 0.00 | 0.00 | 0.00 | 91 | 1017.7 |
| 20260507113536 | 52 | 294 | 1.0 | 4.0 | 0.00 | 0.00 | 0.00 | 91 | 1017.8 |
| 20260507113044 | 52 | 258 | 1.0 | 4.0 | 0.00 | 0.00 | 0.00 | 91 | 1017.7 |
| 20260507112535 | 52 | 263 | 1.0 | 4.0 | 0.00 | 0.00 | 0.00 | 91 | 1017.8 |
| 20260507112036 | 52 | 240 | 1.0 | 4.0 | 0.00 | 0.00 | 0.00 | 91 | 1017.8 |
| 20260507111549 | 52 | 269 | 2.0 | 4.0 | 0.00 | 0.00 | 0.00 | 91 | 1017.9 |
| 20260507111035 | 52 | 213 | 2.0 | 4.0 | 0.00 | 0.00 | 0.00 | 91 | 1017.9 |
| 20260507110535 | 52 | 244 | 1.0 | 5.0 | 0.00 | 0.00 | 0.00 | 91 | 1017.9 |
| 20260507110042 | 52 | 286 | 1.0 | 6.0 | 0.00 | 0.00 | 0.00 | 91 | 1017.8 |
| 20260507105536 | 52 | 284 | 2.0 | 6.0 | 0.00 | 0.00 | 0.00 | 91 | 1017.9 |
| 20260507105040 | 52 | 248 | 1.0 | 3.0 | 0.00 | 0.00 | 0.00 | 91 | 1017.8 |
| 20260507104555 | 52 | 286 | 1.0 | 7.0 | 0.00 | 0.00 | 0.00 | 91 | 1017.8 |
| 20260507104038 | 52 | 272 | 2.0 | 7.0 | 0.00 | 0.00 | 0.00 | 91 | 1017.8 |
| 20260507103535 | 52 | 281 | 1.0 | 5.0 | 0.00 | 0.00 | 0.00 | 91 | 1017.9 |
| 20260507103045 | 52 | 268 | 1.0 | 5.0 | 0.00 | 0.00 | 0.00 | 91 | 1017.8 |
| 20260507102536 | 52 | 279 | 1.0 | 4.0 | 0.00 | 0.00 | 0.00 | 91 | 1017.9 |
| 20260507102038 | 52 | 287 | 1.0 | 6.0 | 0.00 | 0.00 | 0.00 | 91 | 1017.9 |
| 20260507101549 | 53 | 228 | 2.0 | 6.0 | 0.00 | 0.00 | 0.00 | 91 | 1018.0 |
| 20260507101040 | 52 | 242 | 1.0 | 4.0 | 0.00 | 0.00 | 0.00 | 91 | 1017.8 |
| 20260507100537 | 52 | 290 | 2.0 | 5.0 | 0.00 | 0.00 | 0.00 | 91 | 1017.8 |
| 20260507100045 | 52 | 271 | 1.0 | 5.0 | 0.00 | 0.00 | 0.00 | 91 | 1017.8 |
| 20260507095538 | 52 | 288 | 1.0 | 4.0 | 0.00 | 0.00 | 0.00 | 91 | 1017.8 |
| 20260507095039 | 52 | 333 | 1.0 | 4.0 | 0.00 | 0.00 | 0.00 | 91 | 1017.9 |
| 20260507094547 | 53 | 267 | 2.0 | 4.0 | 0.00 | 0.00 | 0.00 | 91 | 1017.9 |
| 20260507094037 | 52 | 225 | 1.0 | 3.0 | 0.00 | 0.00 | 0.00 | 91 | 1018.0 |
| 20260507093537 | 52 | 237 | 1.0 | 3.0 | 0.00 | 0.00 | 0.00 | 91 | 1018.0 |
| 20260507093058 | 52 | 279 | 0.0 | 3.0 | 0.00 | 0.00 | 0.00 | 91 | 1018.1 |
| 20260507092537 | 52 | 240 | 1.0 | 4.0 | 0.00 | 0.00 | 0.00 | 91 | 1018.1 |
| 20260507092038 | 52 | 246 | 1.0 | 4.0 | 0.00 | 0.00 | 0.00 | 91 | 1018.2 |
| 20260507091554 | 52 | 277 | 2.0 | 4.0 | 0.00 | 0.00 | 0.00 | 91 | 1018.2 |
| 20260507091038 | 52 | 244 | 1.0 | 5.0 | 0.00 | 0.00 | 0.00 | 91 | 1018.2 |
| 20260507090536 | 52 | 244 | 1.0 | 6.0 | 0.00 | 0.00 | 0.00 | 91 | 1018.2 |
| 20260507090046 | 52 | 271 | 1.0 | 6.0 | 0.00 | 0.00 | 0.00 | 91 | 1018.2 |
| 20260507085538 | 53 | 279 | 2.0 | 5.0 | 0.00 | 0.00 | 0.00 | 91 | 1018.2 |
| 20260507085042 | 52 | 255 | 1.0 | 3.0 | 0.00 | 0.00 | 0.00 | 91 | 1018.2 |
| 20260507084551 | 52 | 242 | 1.0 | 3.0 | 0.00 | 0.00 | 0.00 | 91 | 1018.3 |
| 20260507084038 | 52 | 242 | 1.0 | 5.0 | 0.00 | 0.00 | 0.00 | 91 | 1018.4 |
| 20260507083538 | 53 | 259 | 2.0 | 5.0 | 0.00 | 0.00 | 0.00 | 91 | 1018.5 |
| 20260507083044 | 53 | 294 | 2.0 | 5.0 | 0.00 | 0.00 | 0.00 | 91 | 1018.4 |
| 20260507082537 | 53 | 0 | 1.0 | 5.0 | 0.00 | 0.00 | 0.00 | 91 | 1018.5 |
| 20260507082041 | 53 | 252 | 2.0 | 5.0 | 0.00 | 0.00 | 0.00 | 91 | 1018.5 |
| 20260507081543 | 53 | 297 | 1.0 | 6.0 | 0.00 | 0.00 | 0.00 | 91 | 1018.5 |